Hagerstown, MD

1:33 AM EDT on October 24, 2019 (GMT -0400)
Hagerstown Regional-Henson

Weather History for KHGR - August, 2019

Change the Weather History Date:

Thursday, August 22, 2019

  Actual Average Record
Temperature  
Mean Temperature 83 °F 73 °F  
Max Temperature 92 °F 82 °F 95 °F (2002)
Min Temperature 73 °F 63 °F 55 °F (2004)
Degree Days  
Heating Degree Days 0 0  
Month to date heating degree days 0 0  
Since 1 June heating degree days 5 18  
Since 1 July heating degree days 0 0  
Cooling Degree Days 18 8  
Month to date cooling degree days 292 198  
Year to date cooling degree days 1159 804  
Since 1 June cooling degree days 977 728  
Growing Degree Days 32 (Base 50)    
Moisture  
Dew Point 67 °F    
Average Humidity 64    
Maximum Humidity 87    
Minimum Humidity 41    
Precipitation  
Precipitation 0.46 in 0.10 in 0.46 in (2019)
Month to date precipitation 1.60 2.21  
Year to date precipitation 27.57 25.70  
Sea Level Pressure  
Sea Level Pressure 29.94 in    
Wind  
Wind Speed 6 mph (WNW)    
Max Wind Speed 24 mph    
Max Gust Speed 29 mph    
Visibility 10 miles    
Events Rain , Thunderstorm    
T = Trace of Precipitation, MM = Missing Value Source: NWS Daily Summary

Daily Weather History Graph

Daily Weather History Graph

Search for Another Location

Airport or City:

Astronomy

Aug. 22, 2019 Rise Set
Actual Time 6:29 AM EDT 7:57 PM EDT
Civil Twilight 6:01 AM EDT 8:25 PM EDT
Nautical Twilight 5:26 AM EDT 8:59 PM EDT
Astronomical Twilight 4:50 AM EDT 9:35 PM EDT
Moon 11:47 PM EDT (8/22) 1:01 PM EDT (8/22)
Length of Visible Light 14h 24m
Length of Day
13h 28m
Waning Gibbous, 60% of the Moon is Illuminated
Aug 22
Waning Gibbous
Aug 23
Last Quarter
Aug 30
New
Sep 5
First Quarter
Sep 14
Full

Hourly Weather History & Observations

Time (EDT) Temp. Heat Index Dew Point Humidity Pressure Visibility Wind Dir Wind Speed Gust Speed Precip Events Conditions
12:53 AM 75.9 °F - 64.9 °F 69% 29.95 in 10.0 mi WNW 9.2 mph - N/A   Clear
1:53 AM 75.9 °F - 64.9 °F 69% 29.94 in 10.0 mi South 4.6 mph - N/A   Clear
2:53 AM 77.0 °F - 64.9 °F 66% 29.93 in 10.0 mi SW 6.9 mph - N/A   Clear
3:53 AM 75.0 °F - 66.0 °F 73% 29.92 in 10.0 mi WSW 4.6 mph - N/A   Clear
4:53 AM 73.0 °F - 66.0 °F 79% 29.94 in 10.0 mi WSW 4.6 mph - N/A   Partly Cloudy
5:53 AM 73.9 °F - 66.0 °F 76% 29.95 in 10.0 mi West 4.6 mph - N/A   Partly Cloudy
6:53 AM 73.9 °F - 66.0 °F 76% 29.97 in 10.0 mi WSW 6.9 mph - N/A   Clear
7:53 AM 73.9 °F - 66.0 °F 76% 29.97 in 10.0 mi Variable 3.5 mph - N/A   Clear
8:53 AM 78.1 °F - 66.0 °F 66% 29.98 in 10.0 mi WSW 5.8 mph - N/A   Clear
9:53 AM 81.0 °F 83.0 °F 66.0 °F 60% 29.99 in 10.0 mi West 10.4 mph - N/A   Partly Cloudy
10:53 AM 84.0 °F 85.8 °F 64.9 °F 53% 29.99 in 10.0 mi WNW 11.5 mph - N/A   Partly Cloudy
11:53 AM 86.0 °F 87.6 °F 64.9 °F 49% 29.98 in 10.0 mi West 9.2 mph 19.6 mph N/A   Partly Cloudy
12:53 PM 89.1 °F 91.0 °F 64.9 °F 45% 29.97 in 10.0 mi West 13.8 mph 20.7 mph N/A   Scattered Clouds
1:53 PM 90.0 °F 91.7 °F 64.9 °F 43% 29.95 in 10.0 mi Variable 6.9 mph - N/A   Scattered Clouds
2:53 PM 91.0 °F 93.0 °F 64.9 °F 42% 29.92 in 10.0 mi NNW 4.6 mph - N/A   Clear
3:53 PM 91.0 °F 92.6 °F 64.0 °F 41% 29.89 in 10.0 mi Variable 3.5 mph - N/A   Scattered Clouds
4:53 PM 90.0 °F 92.4 °F 66.0 °F 45% 29.88 in 10.0 mi South 9.2 mph - N/A   Mostly Cloudy
5:35 PM 87.1 °F 92.0 °F 70.0 °F 57% 29.88 in 10.0 mi South 9.2 mph - 0.02 in Thunderstorm Overcast
5:50 PM 78.8 °F - 71.6 °F 78% 29.91 in 1.8 mi WNW 24.2 mph 28.8 mph 0.12 in Rain , Thunderstorm Heavy Rain
6:00 PM 75.9 °F - 68.0 °F 76% 29.91 in - SE 12.7 mph 17.3 mph 0.41 in Rain , Thunderstorm Heavy Thunderstorms and Rain
6:27 PM 73.9 °F - 69.1 °F 85% 29.89 in - NE 5.8 mph - 0.45 in Thunderstorm Thunderstorm
6:36 PM 75.9 °F - 69.1 °F 79% 29.89 in 10.0 mi ENE 6.9 mph - 0.45 in Thunderstorm Mostly Cloudy
6:44 PM 75.0 °F - 70.0 °F 84% 29.89 in 10.0 mi East 8.1 mph - 0.45 in   Mostly Cloudy
6:53 PM 73.9 °F - 70.0 °F 87% 29.90 in 10.0 mi East 9.2 mph - 0.45 in   Mostly Cloudy
7:53 PM 75.0 °F - 70.0 °F 84% 29.93 in 10.0 mi NE 4.6 mph - N/A   Mostly Cloudy
8:53 PM 75.0 °F - 70.0 °F 84% 29.94 in 10.0 mi NE 3.5 mph - N/A   Mostly Cloudy
8:55 PM 75.0 °F - 70.0 °F 84% 29.93 in 10.0 mi NE 3.5 mph - N/A   Mostly Cloudy
9:53 PM 75.0 °F - 70.0 °F 84% 29.97 in 10.0 mi NE 3.5 mph - N/A   Overcast
10:53 PM 75.0 °F - 71.1 °F 87% 29.98 in 10.0 mi NNW 4.6 mph - 0.01 in   Mostly Cloudy
11:53 PM 73.9 °F - 68.0 °F 82% 29.98 in 10.0 mi NNW 6.9 mph - N/A   Mostly Cloudy